[Date Prev][Date Next][Thread Prev][Thread Next] - [Date Index][Thread Index][Author Index]
STS-100 Nominal Ornbital Data
- Subject: [sarex] STS-100 Nominal Ornbital Data
- From: "Ken Ernandes" <n2wwd@xxxxxxxxxxxxxx>
- Date: Tue, 10 Apr 2001 15:54:58 -0400
Below is the nominal State Vector and Keplerian Elements for
STS-100. The vector data comes from NASA; the Keplerian Elements
were computed from the vector.
This file may be read by VEC2TLE version 9648 to update your
Keplerian Elements text file.
Vector format = 10117
Satellite Name: STS-100
Catalog Number: 90100
Epoch MET: 0.03375912037
0/00:48:36.788 MET
EFG E: 1873764.681669 ft
F: 19869420.959154 ft
G: -9229432.379781 ft
Edot: -16426.518597 ft/s
Fdot: -6271.730936 ft/s
Gdot: -16594.940724 ft/s
ndot/2 (drag): 0.00336392092 rev/day^2
nddt/6: 4.68113E-07 rev/day^3
Bstar: 7.38216E-05 1/Earth Radii
Elset #: 1
Rev @ Epoch: 1.59126946935
Launch Scheduled: 2001-APR-19 1840:40 UTC
Note that 90100 is a temporary Catalog Number. A permanent Catalog
Number and International Designator will be assigned when STS-100
is launched.
The following Keplerian elements were computed by VEC2TLE from the
vector, using a 0.5 drag multiplier:
STS-100
1 90100U 1109.81199986 .00336392 46811-6 73822-4 0 14
2 90100 51.5684 23.3525 0126945 11.8500 200.9847 16.11764961 16
Satellite: STS-100
Catalog number: 90100
Epoch time: 1109.81199986
Element set: 1
Inclination: 51.5684 deg
RA of node: 23.3525 deg
Eccentricity: 0.0126945
Arg of perigee: 11.8500 deg
Mean anomaly: 200.9847 deg
Mean motion: 16.11764961 rev/day
Decay rate: 3.36392e-03 rev/day^2
Epoch rev: 1
Checksum: 271
VEC2TLE may be downloaded from <http://www.orbitessera.com>.
Ken Ernandes
n2wwd@amsat.org
http://www.orbitessera.com
----
Via the sarex mailing list at AMSAT.ORG courtesy of AMSAT-NA.
To unsubscribe, send "unsubscribe sarex" to Majordomo@amsat.org
AMSAT Home